{"data":{"norad_id":37384,"epoch":"2026-05-19T18:25:54.635808Z","epoch_age_seconds":517195,"freshness":"STALE","line1":"1 37384U 11013A   26139.76799347 -.00000201  00000+0  00000+0 0  9996","line2":"2 37384  62.3699  40.4207 0033807 185.8234  35.8952  1.00273682 55372","mean_motion":1.00273682,"eccentricity":0.0033807,"inclination_deg":62.3699,"raan_deg":40.4207,"arg_perigee_deg":185.8234,"mean_anomaly_deg":35.8952,"bstar":0,"rev_number":5537,"period_min":1436.0697356261,"perigee_km":35643.518660091,"apogee_km":35928.607683132,"semimajor_km":42164.200171611,"source":"CELESTRAK","updated_at":"2026-05-25T13:38:24.209151Z"}}